Date String (YYYY-MM-DD hh:mm:ss) UTC,Instrument flags,Ambient pressure (hPa),Sample flow (lpm),Bypass flow (lpm),Sample temperature (°C),Ambient temperature (°C),ASC tube jacket temperature (°C),LED temperature (°C),Box temperature (°C),Sample RH (%),Span deviation,Mass concentration (μg/m³),Mass concentration (μg/m³),Mass concentration (μg/m³)
DateTimeUTC,F1_M11,P_M11,Q1_M11,Q2_M11,T1_M11,T2_M11,T3_M11,T4_M11,T5_M11,U1_M11,ZSPAN_M11,X0_M11,X2_M11,X1_M11
2021-11-11 18:00:00,,0826.8,5.00,0.00,24.7,23.9,00.0,33.6,26.6,10.0,0000.0,0012.51,0004.14,0003.31
2021-11-11 18:01:00,,0826.7,5.01,0.00,24.7,24.0,00.0,33.6,26.6,10.0,0000.0,0012.41,0004.14,0003.29
2021-11-11 18:02:00,,0826.6,5.01,0.00,24.7,24.0,00.0,33.6,26.6,09.9,0000.0,0011.58,0004.07,0003.28
2021-11-11 18:03:00,,0826.6,4.99,0.00,24.7,24.0,00.0,33.6,26.6,09.9,0000.0,0012.24,0004.04,0003.27
2021-11-11 18:04:00,,0826.6,4.99,0.00,24.8,24.0,00.0,33.6,26.7,09.8,0000.0,0012.45,0004.00,0003.26
2021-11-11 18:05:00,,0826.5,5.02,0.00,24.8,24.0,00.0,33.7,26.7,09.8,0000.0,0011.72,0003.96,0003.22
2021-11-11 18:06:00,,0826.5,4.99,0.00,24.8,24.1,00.0,33.7,26.7,09.5,0000.0,0011.71,0003.90,0003.17
2021-11-11 18:07:00,,0826.4,5.00,0.00,24.8,24.1,00.0,33.7,26.7,09.4,0000.0,0011.12,0003.89,0003.10
2021-11-11 18:08:00,,0826.2,5.01,0.00,24.8,24.1,00.0,33.7,26.7,09.5,0000.0,0011.63,0003.83,0003.02
2021-11-11 18:09:00,,0826.2,4.98,0.00,24.9,24.1,00.0,33.7,26.7,09.4,0000.0,0011.32,0003.77,0002.92
2021-11-11 18:10:00,,0826.3,5.01,0.00,24.8,24.0,00.0,33.7,26.6,09.4,0000.0,0010.65,0003.74,0002.84
2021-11-11 18:11:00,,0826.5,5.01,0.00,24.9,24.0,00.0,33.8,26.6,09.4,0000.0,0010.52,0003.66,0002.78
2021-11-11 18:12:00,,0826.4,5.00,0.00,24.9,23.9,00.0,33.8,26.6,09.2,0000.0,0010.46,0003.58,0002.70
2021-11-11 18:13:00,,0826.2,5.02,0.00,24.9,23.9,00.0,33.8,26.7,09.0,0000.0,0010.43,0003.51,0002.61
2021-11-11 18:14:00,,0826.4,4.99,0.00,24.9,23.9,00.0,33.8,26.7,09.1,0000.0,0009.93,0003.44,0002.50
2021-11-11 18:15:00,,0826.5,5.00,0.00,24.9,24.0,00.0,33.8,26.7,09.5,0000.0,0009.62,0003.44,0002.43
2021-11-11 18:16:00,,0826.3,4.99,0.00,24.9,24.0,00.0,33.8,26.7,09.5,0000.0,0009.60,0003.44,0002.42
2021-11-11 18:17:00,,0826.4,5.00,0.00,24.9,23.9,00.0,33.8,26.7,09.5,0000.0,0009.57,0003.42,0002.40
2021-11-11 18:18:00,,0826.3,5.00,0.00,24.9,23.9,00.0,33.8,26.7,09.4,0000.0,0009.23,0003.35,0002.40
2021-11-11 18:19:00,,0826.4,5.01,0.00,24.9,23.9,00.0,33.9,26.6,09.4,0000.0,0008.56,0003.34,0002.38
2021-11-11 18:20:00,,0826.4,5.00,0.00,24.9,23.9,00.0,33.9,26.7,09.3,0000.0,0008.42,0003.32,0002.36
2021-11-11 18:21:00,,0826.2,4.99,0.00,24.9,23.9,00.0,33.9,26.7,09.4,0000.0,0008.41,0003.26,0002.32
2021-11-11 18:22:00,,0826.2,5.00,0.00,24.9,23.9,00.0,33.9,26.7,09.4,0000.0,0008.54,0003.23,0002.28
2021-11-11 18:23:00,,0826.2,5.01,0.00,24.9,23.9,00.0,33.9,26.6,09.2,0000.0,0008.37,0003.21,0002.22
2021-11-11 18:24:00,,0826.1,4.99,0.00,24.9,23.9,00.0,33.9,26.6,09.3,0000.0,0008.30,0003.21,0002.20
2021-11-11 18:25:00,,0826.2,5.00,0.00,24.9,23.8,00.0,33.9,26.6,09.3,0000.0,0007.80,0003.19,0002.19
2021-11-11 18:26:00,,0826.1,5.01,0.00,24.9,23.8,00.0,33.9,26.7,09.4,0000.0,0007.64,0003.08,0002.12
2021-11-11 18:27:00,,0826.1,5.01,0.00,24.9,23.8,00.0,33.9,26.7,10.0,0000.0,0007.22,0002.99,0002.04
2021-11-11 18:28:00,,0825.9,4.99,0.00,24.9,23.9,00.0,33.9,26.7,10.1,0000.0,0005.96,0002.99,0002.02
2021-11-11 18:29:00,,0825.9,4.99,0.00,25.0,23.9,00.0,33.9,26.8,09.2,0000.0,0005.90,0002.98,0001.99
2021-11-11 18:30:00,,0825.9,5.00,0.00,25.0,23.9,00.0,33.9,26.8,09.3,0000.0,0005.77,0002.91,0001.97
2021-11-11 18:31:00,,0826.0,5.00,0.00,25.0,24.0,00.0,33.9,26.8,10.0,0000.0,0005.64,0002.83,0001.94
2021-11-11 18:32:00,,0825.9,5.00,0.00,25.0,24.0,00.0,33.9,26.8,10.3,0000.0,0005.24,0002.83,0001.92
2021-11-11 18:33:00,,0826.0,5.00,0.00,25.0,24.0,00.0,33.9,26.8,10.1,0000.0,0005.16,0002.87,0001.91
2021-11-11 18:34:00,,0826.0,4.99,0.00,25.0,23.9,00.0,34.0,26.8,10.0,0000.0,0005.20,0002.86,0001.90
2021-11-11 18:35:00,,0825.9,4.99,0.00,25.0,24.0,00.0,34.0,26.8,10.2,0000.0,0005.24,0002.86,0001.90
2021-11-11 18:36:00,,0825.9,5.01,0.00,25.0,24.0,00.0,34.0,26.8,09.8,0000.0,0005.32,0002.90,0001.87
2021-11-11 18:37:00,,0826.0,5.00,0.00,25.0,24.0,00.0,34.0,26.8,09.8,0000.0,0005.49,0002.95,0001.87
2021-11-11 18:38:00,,0825.9,5.00,0.00,25.0,24.0,00.0,34.0,26.8,10.0,0000.0,0005.60,0002.98,0001.85
2021-11-11 18:39:00,,0825.9,5.00,0.00,25.0,24.0,00.0,34.0,26.8,10.2,0000.0,0005.34,0002.94,0001.83
2021-11-11 18:40:00,,0825.9,5.01,0.00,25.0,24.1,00.0,34.0,26.8,10.4,0000.0,0005.64,0002.98,0001.82
2021-11-11 18:41:00,,0825.8,4.99,0.00,25.0,24.1,00.0,34.0,26.8,10.4,0000.0,0006.10,0003.08,0001.83
2021-11-11 18:42:00,,0825.6,5.00,0.00,25.0,24.0,00.0,34.0,26.8,10.1,0000.0,0006.32,0003.14,0001.84
2021-11-11 18:43:00,,0825.7,5.00,0.00,25.0,24.0,00.0,34.0,26.8,10.2,0000.0,0006.39,0003.13,0001.84
2021-11-11 18:44:00,,0825.7,5.00,0.00,25.0,24.0,00.0,34.0,26.8,10.5,0000.0,0005.98,0003.07,0001.83
2021-11-11 18:45:00,,0825.5,5.00,0.00,25.0,24.1,00.0,34.0,26.8,10.5,0000.0,0006.27,0003.11,0001.85
2021-11-11 18:46:00,,0825.6,5.02,0.00,25.0,24.1,00.0,34.0,26.8,10.6,0000.0,0006.34,0003.05,0001.86
2021-11-11 18:47:00,,0825.6,4.99,0.00,25.0,24.0,00.0,34.0,26.8,10.2,0000.0,0006.22,0002.97,0001.87
2021-11-11 18:48:00,,0825.6,5.01,0.00,25.1,24.0,00.0,34.0,26.8,10.3,0000.0,0006.40,0002.95,0001.87
2021-11-11 18:49:00,,0825.6,4.99,0.00,25.1,24.0,00.0,34.1,26.8,10.3,0000.0,0006.89,0002.96,0001.88
2021-11-11 18:50:00,,0825.5,5.00,0.00,25.1,24.0,00.0,34.1,26.8,09.9,0000.0,0007.30,0002.98,0001.90
2021-11-11 18:51:00,,0825.5,5.00,0.00,25.1,24.1,00.0,34.1,26.8,09.3,0000.0,0007.34,0002.98,0001.87
2021-11-11 18:52:00,,0825.5,5.00,0.00,25.1,24.0,00.0,34.1,26.8,09.3,0000.0,0006.95,0002.90,0001.86
2021-11-11 18:53:00,,0825.6,4.99,0.00,25.1,24.0,00.0,34.1,26.7,09.5,0000.0,0007.00,0002.89,0001.85
2021-11-11 18:54:00,,0825.5,5.00,0.00,25.1,23.9,00.0,34.1,26.7,10.0,0000.0,0007.03,0002.96,0001.85
2021-11-11 18:55:00,,0825.4,5.01,0.00,25.0,24.0,00.0,34.1,26.7,10.0,0000.0,0007.22,0003.01,0001.84
2021-11-11 18:56:00,,0825.5,5.00,0.00,25.0,24.0,00.0,34.1,26.8,09.3,0000.0,0006.76,0002.90,0001.82
2021-11-11 18:57:00,,0825.5,5.00,0.00,25.0,24.0,00.0,34.1,26.8,09.2,0000.0,0006.21,0002.79,0001.78
2021-11-11 18:58:00,,0825.3,4.99,0.00,25.0,24.0,00.0,34.1,26.8,09.4,0000.0,0006.06,0002.78,0001.76
2021-11-11 18:59:00,,0825.3,5.01,0.00,25.0,24.0,00.0,34.1,26.8,09.4,0000.0,0006.10,0002.76,0001.72
